STARLINK-34560, 64700

Orbit data source: Space-Track

STARLINK-34560, 64700 is a payload satellite owned by SpaceX/Seattle (US) in LEO that was launched on Sat, 28 Jun 2025 UTC via an FALCON 9 launch vehicle from the Air Force Western Test Range (AFWTR). Payload-class satellites include a variety of spacecraft equipped with specific instruments for various scientific and technological missions. These include communications satellites like Starlink; space stations such as the ISS; scientific satellites like the Hubble; Earth observation satellites from companies like Planet Labs, Umbra, and HawkEye 360; GPS; miniature CubeSats for education and research; and military/defense satellites.

Loading next visibility...
Identifier
64700, 2025-142E
Orbit
LEO
Country
Flag of USUS
Related business
Manufacturer
SpaceX/Seattle
Mission
Operational Commercial Communications
Bus & Motor
STARLINK V2MO, Unknown motor
Mass
575 kg wet, ~530 kg dry
Launch date (UTC)
2025-06-28 (1 year ago)
Launch vehicle
FALCON 9
Launch site
Air Force Western Test Range (AFWTR)
Object type
Payload
Rocket body
Debris
Shape & HBR
Box + 1 Pan, 17.7 m
Radar Cross Section
41.120 m², Large (>1 m²)

Expand to show TLE details & history
Last TLE update: 14 hours ago

TLE from 14 hours ago
0 STARLINK-34560
1 64700U 25142E   26264.17336956  .00010708  00000-0  37664-3 0  9996
2 64700  70.0002 179.1019 0003360 260.5776  99.5020 15.29560510 68789
Epoch: 2026-09-21T04:09Z
TLE epoch observation values (Epoch: 2026-09-21T04:09:39.129Z)
Latitude
Longitude
116.63187°
Altitude
479.964 km
Speed
7.626 km/s
True Right ascension
11h 56m 24s
True Declination
0° 00' 00"
Sunlit
Object was in daylight at epoch
Visualization orbit readout
Latitude
Unknown
Longitude
Unknown
Altitude
Unknown
Speed
Unknown
Apparent Right ascension
Unknown
Apparent Declination
Unknown
Sunlit
N/A
Visualization observer readout
Local Sidereal Time
10:58:05
Azimuth
Unknown
Elevation
Unknown
Doppler factor
Unknown
Orbital elements
Apogee altitude
477.348 km
Perigee altitude
472.742 km
Semi-major axis
6,853.182 km
Eccentricity
0.00034
Inclination
70.0002°
RAAN
179.1019°
Arg. of periapsis
260.5776°
True anomaly
99.53997°
Mean anomaly
99.502°
Eccentric anomaly
99.52099°
Mean motion
3.82565 °/min
Orbital period
94.1 mins
BSTAR
0.00037664
Loading maneuver chart data...
Computing Atmospheric mass density...
Loading historical data...
Loading historical data...
Loading historical data...
Loading historical data...
Loading historical data...
Loading historical data...
Loading historical data...

Documentation

Showing up to 5 results
|